This demonstration page uses our WeatherBlox Daily Observations layout. Learn more.

Left ArrowRight Arrow

Hourly Observations for June 28, 2022

Temp ( °F °C ) Dew Point ( °F °C ) Humidity (%) Winds ( mph kmh ) Pressure ( in mb ) Visibility ( mi km ) Precip ( " mm )
12:53 am 00:53 Clear 66 18.9 36 2.2 33 33 Calm 30.00 1016 10 16 0.00 0.00
1:53 am 01:53 Clear 63 17.2 37 2.8 38 38 Calm 29.99 1016 10 16 0.00 0.00
2:53 am 02:53 Clear 59 15 39 3.9 48 48 ENE 6 9 30.00 1016 10 16 0.00 0.00
3:53 am 03:53 Clear 56 13.3 39 3.9 53 53 ESE 3 6 30.00 1016 10 16 0.00 0.00
4:53 am 04:53 Clear 55 12.8 40 4.4 57 57 NNE 7 11 30.01 1016 10 16 0.00 0.00
5:53 am 05:53 Sunny 53 11.7 43 6.1 69 69 ENE 9 15 30.04 1017 10 16 0.00 0.00
6:53 am 06:53 Sunny 57 13.9 47 8.3 69 69 ENE 15 24 30.04 1017 10 16 0.00 0.00
7:53 am 07:53 Sunny 61 16.1 45 7.2 56 56 E 15 24 30.05 1018 10 16 0.00 0.00
8:53 am 08:53 Sunny 67 19.4 47 8.3 49 49 E 20 31 30.04 1017 10 16 0.00 0.00
9:53 am 09:53 Sunny 70 21.1 48 8.9 46 46 ENE 17 28 30.03 1017 10 16 0.00 0.00
10:53 am 10:53 Sunny 75 23.9 49 9.4 40 40 E 23 37 29.99 1016 10 16 0.00 0.00
11:53 am 11:53 Sunny 80 26.7 49 9.4 34 34 E 21 33 29.99 1016 10 16 0.00 0.00
12:53 pm 12:53 Sunny 78 25.6 48 8.9 35 35 E 22 35 29.95 1014 10 16 0.00 0.00
1:53 pm 13:53 Sunny 84 28.9 50 10 31 31 E 22 35 29.91 1013 10 16 0.00 0.00
2:53 pm 14:53 Sunny 87 30.6 50 10 28 28 E 23 37 29.87 1012 10 16 0.00 0.00
3:53 pm 15:53 Sunny 84 28.9 49 9.4 30 30 E 21 33 29.85 1011 10 16 0.00 0.00
4:53 pm 16:53 Sunny 88 31.1 51 10.6 28 28 E 20 31 29.81 1010 10 16 0.00 0.00
5:53 pm 17:53 Sunny 86 30 51 10.6 30 30 E 18 30 29.79 1009 10 16 0.00 0.00
6:53 pm 18:53 Mostly Sunny 85 29.4 50 10 30 30 E 22 35 29.75 1008 10 16 0.00 0.00
7:53 pm 19:53 Sunny 82 27.8 51 10.6 34 34 ESE 20 31 29.74 1007 10 16 0.00 0.00
8:53 pm 20:53 Mostly Sunny 80 26.7 52 11.1 38 38 ESE 18 30 29.72 1006 10 16 0.00 0.00
9:53 pm 21:53 Clear 75 23.9 53 11.7 46 46 VRB 5 7 29.73 1007 10 16 0.00 0.00
10:53 pm 22:53 Clear 69 20.6 53 11.7 57 57 Calm 29.71 1006 10 16 0.00 0.00
11:45 pm 23:45 Mostly Cloudy with Light Rain 65 18.3 57 13.9 76 76 WNW 21 33 29.79 1009 6 10 0.01 0.25
11:53 pm 23:53 Cloudy with Light Rain 64 17.8 58 14.4 81 81 WNW 16 26 29.84 1010 10 16 0.01 0.25

Powered by AerisWeather